TimeCST,TemperatureF,Dew PointF,Humidity,Sea Level PressureIn,VisibilityMPH,Wind Direction,Wind SpeedMPH,Gust SpeedMPH,PrecipitationIn,Events,Conditions,WindDirDegrees,DateUTC
12:14 AM,42.8,26.6,53,29.63,10.0,WNW,17.3,-,N/A,,Clear,290,2012-01-06 06:14:00
12:34 AM,42.8,24.8,49,29.64,10.0,West,13.8,-,N/A,,Clear,270,2012-01-06 06:34:00
12:54 AM,41.0,26.6,57,29.64,10.0,West,13.8,23.0,N/A,,Clear,270,2012-01-06 06:54:00
1:14 AM,41.0,26.6,57,29.64,10.0,WNW,18.4,23.0,N/A,,Clear,290,2012-01-06 07:14:00
1:34 AM,39.2,26.6,61,29.65,10.0,West,17.3,21.9,N/A,,Clear,280,2012-01-06 07:34:00
1:54 AM,39.2,26.6,61,29.66,10.0,WNW,18.4,23.0,N/A,,Clear,290,2012-01-06 07:54:00
2:14 AM,39.2,26.6,61,29.66,10.0,WNW,16.1,-,N/A,,Clear,290,2012-01-06 08:14:00
2:34 AM,37.4,26.6,65,29.67,10.0,WNW,15.0,-,N/A,,Clear,290,2012-01-06 08:34:00
2:54 AM,37.4,26.6,65,29.68,10.0,West,11.5,-,N/A,,Clear,280,2012-01-06 08:54:00
3:14 AM,35.6,26.6,70,29.68,10.0,West,11.5,-,N/A,,Clear,270,2012-01-06 09:14:00
3:34 AM,35.6,26.6,70,29.68,10.0,West,11.5,-,N/A,,Clear,280,2012-01-06 09:34:00
3:53 AM,35.6,26.6,70,29.68,10.0,West,10.4,-,N/A,,Clear,280,2012-01-06 09:53:00
4:13 AM,35.6,26.6,70,29.68,10.0,West,10.4,-,N/A,,Clear,270,2012-01-06 10:13:00
4:34 AM,35.6,26.6,70,29.68,10.0,West,12.7,17.3,N/A,,Clear,280,2012-01-06 10:34:00
4:54 AM,35.6,26.6,70,29.68,10.0,West,11.5,-,N/A,,Clear,280,2012-01-06 10:54:00
5:14 AM,35.6,26.6,70,29.68,10.0,West,12.7,-,N/A,,Clear,270,2012-01-06 11:14:00
5:34 AM,35.6,26.6,70,29.69,10.0,West,10.4,-,N/A,,Scattered Clouds,260,2012-01-06 11:34:00
5:54 AM,33.8,26.6,75,29.70,10.0,West,10.4,-,N/A,,Scattered Clouds,260,2012-01-06 11:54:00
6:14 AM,32.0,26.6,80,29.71,10.0,West,10.4,-,N/A,,Scattered Clouds,260,2012-01-06 12:14:00
6:34 AM,33.8,24.8,70,29.72,10.0,West,10.4,-,N/A,,Mostly Cloudy,260,2012-01-06 12:34:00
6:53 AM,32.0,24.8,75,29.72,10.0,WSW,10.4,-,N/A,,Scattered Clouds,250,2012-01-06 12:53:00
7:13 AM,32.0,24.8,75,29.73,10.0,West,11.5,-,N/A,,Clear,260,2012-01-06 13:13:00
7:34 AM,30.2,24.8,80,29.72,10.0,West,10.4,-,N/A,,Clear,260,2012-01-06 13:34:00
7:54 AM,30.2,24.8,80,29.73,10.0,WSW,9.2,-,N/A,,Clear,250,2012-01-06 13:54:00
8:33 AM,30.2,24.8,80,29.74,10.0,West,12.7,-,N/A,,Clear,260,2012-01-06 14:33:00
8:54 AM,30.2,24.8,80,29.75,10.0,West,12.7,-,N/A,,Clear,260,2012-01-06 14:54:00
9:14 AM,30.2,24.8,80,29.76,10.0,West,11.5,-,N/A,,Clear,260,2012-01-06 15:14:00
9:34 AM,33.8,24.8,70,29.76,10.0,West,11.5,-,N/A,,Clear,260,2012-01-06 15:34:00
9:54 AM,35.6,24.8,65,29.77,10.0,West,12.7,-,N/A,,Clear,260,2012-01-06 15:54:00
10:14 AM,37.4,24.8,60,29.78,10.0,West,15.0,20.7,N/A,,Clear,270,2012-01-06 16:14:00
10:34 AM,39.2,23.0,52,29.78,10.0,West,17.3,23.0,N/A,,Clear,270,2012-01-06 16:34:00
10:53 AM,39.2,23.0,52,29.78,10.0,West,19.6,27.6,N/A,,Clear,280,2012-01-06 16:53:00
11:14 AM,39.2,23.0,52,29.78,10.0,West,17.3,25.3,N/A,,Clear,280,2012-01-06 17:14:00
11:34 AM,41.0,23.0,49,29.77,10.0,WNW,19.6,27.6,N/A,,Clear,290,2012-01-06 17:34:00
11:54 AM,41.0,23.0,49,29.77,10.0,West,17.3,27.6,N/A,,Clear,280,2012-01-06 17:54:00
12:14 PM,42.8,23.0,46,29.77,10.0,West,19.6,24.2,N/A,,Clear,280,2012-01-06 18:14:00
12:34 PM,42.8,23.0,46,29.76,10.0,WNW,19.6,24.2,N/A,,Clear,290,2012-01-06 18:34:00
1:14 PM,42.8,21.2,42,29.76,10.0,West,19.6,25.3,N/A,,Clear,280,2012-01-06 19:14:00
1:34 PM,44.6,21.2,39,29.75,10.0,West,20.7,28.8,N/A,,Clear,280,2012-01-06 19:34:00
1:54 PM,42.8,21.2,42,29.75,10.0,West,18.4,26.5,N/A,,Clear,280,2012-01-06 19:54:00
2:14 PM,44.6,21.2,39,29.75,10.0,West,19.6,28.8,N/A,,Clear,270,2012-01-06 20:14:00
2:54 PM,44.6,19.4,37,29.76,10.0,West,18.4,26.5,N/A,,Clear,270,2012-01-06 20:54:00
3:14 PM,42.8,19.4,39,29.76,10.0,West,20.7,26.5,N/A,,Clear,280,2012-01-06 21:14:00
3:34 PM,42.8,19.4,39,29.76,10.0,West,19.6,27.6,N/A,,Clear,270,2012-01-06 21:34:00
3:54 PM,42.8,19.4,39,29.77,10.0,West,21.9,27.6,N/A,,Scattered Clouds,280,2012-01-06 21:54:00
4:14 PM,42.8,19.4,39,29.77,10.0,West,20.7,29.9,N/A,,Overcast,280,2012-01-06 22:14:00
4:34 PM,39.2,21.2,49,29.77,10.0,West,21.9,28.8,N/A,,Scattered Clouds,280,2012-01-06 22:34:00
4:53 PM,39.2,23.0,52,29.79,10.0,WNW,20.7,26.5,N/A,,Scattered Clouds,290,2012-01-06 22:53:00
5:14 PM,39.2,23.0,52,29.79,10.0,WNW,20.7,27.6,N/A,,Mostly Cloudy,290,2012-01-06 23:14:00
5:54 PM,37.4,24.8,60,29.80,10.0,WNW,18.4,23.0,N/A,,Scattered Clouds,290,2012-01-06 23:54:00
6:14 PM,35.6,24.8,65,29.81,10.0,WNW,19.6,27.6,N/A,,Clear,290,2012-01-07 00:14:00
6:54 PM,35.6,24.8,65,29.82,10.0,WNW,21.9,32.2,N/A,,Overcast,290,2012-01-07 00:54:00
7:13 PM,35.6,26.6,70,29.84,10.0,WNW,23.0,31.1,N/A,,Overcast,290,2012-01-07 01:13:00
7:34 PM,35.6,26.6,70,29.84,10.0,WNW,20.7,32.2,N/A,,Mostly Cloudy,290,2012-01-07 01:34:00
7:54 PM,35.6,26.6,70,29.84,10.0,WNW,23.0,28.8,N/A,,Overcast,290,2012-01-07 01:54:00
8:14 PM,35.6,26.6,70,29.85,10.0,WNW,26.5,33.4,N/A,,Overcast,290,2012-01-07 02:14:00
8:33 PM,35.6,24.8,65,29.85,10.0,WNW,23.0,33.4,N/A,,Overcast,290,2012-01-07 02:33:00
8:54 PM,35.6,24.8,65,29.86,10.0,WNW,20.7,27.6,N/A,,Overcast,300,2012-01-07 02:54:00
9:14 PM,33.8,26.6,75,29.86,10.0,WNW,21.9,31.1,N/A,,Overcast,300,2012-01-07 03:14:00
9:34 PM,33.8,26.6,75,29.87,10.0,WNW,24.2,32.2,N/A,,Overcast,300,2012-01-07 03:34:00
9:54 PM,33.8,26.6,75,29.88,10.0,WNW,23.0,32.2,N/A,,Overcast,300,2012-01-07 03:54:00
10:14 PM,32.0,26.6,80,29.88,10.0,NW,25.3,31.1,N/A,,Overcast,310,2012-01-07 04:14:00
10:34 PM,30.2,26.6,86,29.89,10.0,NW,21.9,26.5,N/A,,Overcast,320,2012-01-07 04:34:00
10:54 PM,30.2,23.0,75,29.90,10.0,NW,13.8,-,N/A,,Overcast,320,2012-01-07 04:54:00
11:13 PM,30.2,21.2,69,29.91,10.0,NW,17.3,25.3,N/A,,Overcast,310,2012-01-07 05:13:00
11:34 PM,30.2,19.4,64,29.92,10.0,NW,18.4,27.6,N/A,,Overcast,310,2012-01-07 05:34:00
11:54 PM,30.2,19.4,64,29.92,10.0,NW,25.3,31.1,N/A,,Overcast,320,2012-01-07 05:54:00